^^
Saratoga-Weather Station Historical Data
Daily Summary for April 14, 2020 Units:  Metric    English   Both
Daily Weekly Monthly Yearly Custom
  High: Low: Average:
Temperature: 15.5 °C 6.1 °C 10.9 °C
Dew Point: 5.4 °C 2.4 °C 3.5 °C
Humidity: 78% 46% 62%
Wind Speed: 17.7km/h 0km/h 4.9km/h
Wind Gust: 25.7km/h - -
Wind- - South
Pressure: 1015.6 hPa 1011.5 hPa -
Precipitation: 0.5 mm    
Historical Graphs
 
 
Tabular Data for April 14, 2020
Time Temperature Dew Point Pressure Wind Wind Speed Wind Gust Humidity Rainfall Rate (Hourly) solar
00:02 9.6 °C 4 °C 1011.5 hPa North 3.2 km/h 6.4 km/h 68% 0.0 mm 0 W/m2
00:07 9.6 °C 4.2 °C 1011.5 hPa NNE 4.7 km/h 19.3 km/h 69% 0.0 mm 0 W/m2
00:12 9.4 °C 4 °C 1011.5 hPa WNW 6.4 km/h 11.3 km/h 69% 0.0 mm 0 W/m2
00:17 9.4 °C 4 °C 1011.5 hPa North 1.4 km/h 16.1 km/h 69% 0.0 mm 0 W/m2
00:22 9.3 °C 4.1 °C 1011.9 hPa North 4.7 km/h 12.9 km/h 70% 0.0 mm 0 W/m2
00:27 9.3 °C 4.1 °C 1011.9 hPa West 4.7 km/h 6.4 km/h 70% 0.0 mm 0 W/m2
00:32 9.3 °C 4.1 °C 1011.9 hPa NNW 3.2 km/h 6.4 km/h 70% 0.0 mm 0 W/m2
00:37 9.2 °C 4.2 °C 1011.9 hPa WSW 6.4 km/h 11.3 km/h 71% 0.0 mm 0 W/m2
00:42 9.2 °C 4 °C 1012.2 hPa NW 3.2 km/h 14.5 km/h 70% 0.0 mm 0 W/m2
00:47 9.1 °C 3.9 °C 1012.2 hPa NW 4.7 km/h 8 km/h 70% 0.0 mm 0 W/m2
00:52 9.1 °C 4.1 °C 1012.2 hPa NNW 3.2 km/h 14.5 km/h 71% 0.0 mm 0 W/m2
00:57 9.1 °C 4.1 °C 1012.2 hPa WNW 6.4 km/h 8 km/h 71% 0.0 mm 0 W/m2
01:02 9 °C 4 °C 1012.2 hPa SSW 1.4 km/h 9.7 km/h 71% 0.0 mm 0 W/m2
01:07 8.9 °C 3.9 °C 1012.2 hPa WSW 4.7 km/h 6.4 km/h 71% 0.0 mm 0 W/m2
01:12 8.9 °C 3.9 °C 1012.2 hPa ENE 16.1 km/h 16.1 km/h 71% 0.0 mm 0 W/m2
01:17 8.9 °C 3.9 °C 1012.2 hPa WNW 3.2 km/h 12.9 km/h 71% 0.0 mm 0 W/m2
01:22 8.8 °C 3.8 °C 1012.2 hPa NNW 7.9 km/h 9.7 km/h 71% 0.0 mm 0 W/m2
01:27 8.8 °C 3.8 °C 1012.2 hPa West 1.4 km/h 8 km/h 71% 0.0 mm 0 W/m2
01:32 8.7 °C 3.9 °C 1012.2 hPa SW 1.4 km/h 8 km/h 72% 0.0 mm 0 W/m2
01:37 8.7 °C 3.9 °C 1012.2 hPa NNW 3.2 km/h 6.4 km/h 72% 0.0 mm 0 W/m2
01:42 8.6 °C 3.8 °C 1012.2 hPa NNE 1.4 km/h 4.8 km/h 72% 0.0 mm 0 W/m2
01:47 8.5 °C 3.7 °C 1012.5 hPa NNW 4.7 km/h 6.4 km/h 72% 0.0 mm 0 W/m2
01:52 8.4 °C 3.6 °C 1012.5 hPa WNW 4.7 km/h 9.7 km/h 72% 0.0 mm 0 W/m2
01:57 8.3 °C 3.5 °C 1012.5 hPa NNW 3.2 km/h 3.2 km/h 72% 0.0 mm 0 W/m2
02:02 8.2 °C 3.5 °C 1012.5 hPa WNW 3.2 km/h 8 km/h 72% 0.0 mm 0 W/m2
02:07 8.2 °C 3.6 °C 1012.5 hPa NE 4.7 km/h 16.1 km/h 73% 0.0 mm 0 W/m2
02:12 8.1 °C 3.4 °C 1012.5 hPa East 3.2 km/h 9.7 km/h 72% 0.0 mm 0 W/m2
02:17 8.1 °C 3.6 °C 1012.9 hPa SE 4.7 km/h 6.4 km/h 73% 0.0 mm 0 W/m2
02:22 8 °C 3.5 °C 1012.9 hPa NE 1.4 km/h 9.7 km/h 73% 0.0 mm 0 W/m2
02:28 7.9 °C 3.4 °C 1012.9 hPa NE 4.7 km/h 16.1 km/h 73% 0.0 mm 0 W/m2
02:33 7.9 °C 3.4 °C 1012.9 hPa WSW 6.4 km/h 11.3 km/h 73% 0.0 mm 0 W/m2
02:38 7.8 °C 3.3 °C 1012.9 hPa NW 6.4 km/h 11.3 km/h 73% 0.0 mm 0 W/m2
02:43 7.8 °C 3.3 °C 1012.9 hPa ESE 3.2 km/h 9.7 km/h 73% 0.0 mm 0 W/m2
02:48 7.8 °C 3.3 °C 1012.9 hPa North 4.7 km/h 6.4 km/h 73% 0.0 mm 0 W/m2
02:53 7.8 °C 3.3 °C 1012.9 hPa NNW 1.4 km/h 8 km/h 73% 0.0 mm 0 W/m2
02:58 7.7 °C 3.2 °C 1012.9 hPa SSW 1.4 km/h 4.8 km/h 73% 0.0 mm 0 W/m2
03:03 7.7 °C 3.2 °C 1012.9 hPa ESE 4.7 km/h 6.4 km/h 73% 0.0 mm 0 W/m2
03:08 7.6 °C 3.3 °C 1013.2 hPa West 6.4 km/h 9.7 km/h 74% 0.0 mm 0 W/m2
03:13 7.6 °C 3.1 °C 1013.2 hPa NNW 7.9 km/h 9.7 km/h 73% 0.0 mm 0 W/m2
03:18 7.6 °C 3.3 °C 1013.2 hPa NNW 3.2 km/h 11.3 km/h 74% 0.0 mm 0 W/m2
03:23 7.5 °C 3 °C 1013.2 hPa WNW 1.4 km/h 6.4 km/h 73% 0.0 mm 0 W/m2
03:28 7.4 °C 3.1 °C 1013.2 hPa Calm   4.8 km/h 74% 0.0 mm 0 W/m2
03:33 7.4 °C 3.1 °C 1013.2 hPa ENE 9.7 km/h 12.9 km/h 74% 0.0 mm 0 W/m2
03:38 7.3 °C 3 °C 1013.5 hPa NNE 1.4 km/h 4.8 km/h 74% 0.0 mm 0 W/m2
03:43 7.3 °C 3 °C 1013.5 hPa ENE 1.4 km/h 12.9 km/h 74% 0.0 mm 0 W/m2
03:48 7.3 °C 3 °C 1013.5 hPa SSW 1.4 km/h 4.8 km/h 74% 0.0 mm 0 W/m2
03:53 7.2 °C 2.9 °C 1013.5 hPa NW 3.2 km/h 6.4 km/h 74% 0.0 mm 0 W/m2
03:58 7.2 °C 2.9 °C 1013.5 hPa ENE 6.4 km/h 8 km/h 74% 0.0 mm 0 W/m2
04:03 7.1 °C 2.8 °C 1013.5 hPa ESE 4.7 km/h 6.4 km/h 74% 0.0 mm 0 W/m2
04:08 7 °C 2.7 °C 1013.5 hPa WNW 7.9 km/h 11.3 km/h 74% 0.0 mm 0 W/m2
04:13 6.9 °C 2.8 °C 1013.5 hPa NNW 7.9 km/h 8 km/h 75% 0.0 mm 0 W/m2
04:18 6.9 °C 2.8 °C 1013.5 hPa ENE 1.4 km/h 6.4 km/h 75% 0.0 mm 0 W/m2
04:23 6.8 °C 2.7 °C 1013.9 hPa NNW 6.4 km/h 6.4 km/h 75% 0.0 mm 0 W/m2
04:28 6.8 °C 2.9 °C 1013.9 hPa ESE 3.2 km/h 11.3 km/h 76% 0.0 mm 0 W/m2
04:33 6.7 °C 2.8 °C 1013.9 hPa NNW 4.7 km/h 9.7 km/h 76% 0.0 mm 0 W/m2
04:38 6.7 °C 2.8 °C 1013.9 hPa ENE 4.7 km/h 6.4 km/h 76% 0.0 mm 0 W/m2
04:43 6.7 °C 2.8 °C 1013.9 hPa Calm   4.8 km/h 76% 0.0 mm 0 W/m2
04:48 6.7 °C 2.8 °C 1013.9 hPa NNE 1.4 km/h 9.7 km/h 76% 0.0 mm 0 W/m2
04:53 6.6 °C 2.7 °C 1013.9 hPa North 6.4 km/h 12.9 km/h 76% 0.0 mm 0 W/m2
04:58 6.6 °C 2.7 °C 1013.9 hPa SE 3.2 km/h 8 km/h 76% 0.0 mm 0 W/m2
05:03 6.6 °C 2.7 °C 1013.9 hPa NW 14.5 km/h 14.5 km/h 76% 0.0 mm 0 W/m2
05:08 6.6 °C 2.7 °C 1013.9 hPa South 1.4 km/h 4.8 km/h 76% 0.0 mm 0 W/m2
05:13 6.5 °C 2.6 °C 1014.2 hPa East 4.7 km/h 8 km/h 76% 0.0 mm 0 W/m2
05:18 6.5 °C 2.6 °C 1013.9 hPa WSW 4.7 km/h 4.8 km/h 76% 0.0 mm 0 W/m2
05:23 6.4 °C 2.5 °C 1013.9 hPa NE 9.7 km/h 9.7 km/h 76% 0.0 mm 0 W/m2
05:28 6.4 °C 2.5 °C 1014.2 hPa NNW 13 km/h 12.9 km/h 76% 0.0 mm 0 W/m2
05:33 6.4 °C 2.5 °C 1014.2 hPa West 6.4 km/h 14.5 km/h 76% 0.0 mm 0 W/m2
05:38 6.4 °C 2.5 °C 1014.2 hPa North 1.4 km/h 14.5 km/h 76% 0.0 mm 0 W/m2
05:43 6.3 °C 2.4 °C 1014.2 hPa WNW 7.9 km/h 8 km/h 76% 0.0 mm 0 W/m2
05:49 6.3 °C 2.4 °C 1014.2 hPa North 6.4 km/h 14.5 km/h 76% 0.0 mm 0 W/m2
05:54 6.3 °C 2.4 °C 1014.2 hPa WSW 1.4 km/h 3.2 km/h 76% 0.0 mm 0 W/m2
05:59 6.2 °C 2.5 °C 1014.2 hPa ENE 4.7 km/h 12.9 km/h 77% 0.0 mm 5 W/m2
06:04 6.2 °C 2.5 °C 1014.2 hPa SSW 4.7 km/h 14.5 km/h 77% 0.0 mm 7 W/m2
06:09 6.2 °C 2.5 °C 1014.6 hPa NNW 9.7 km/h 12.9 km/h 77% 0.0 mm 11 W/m2
06:14 6.2 °C 2.5 °C 1014.6 hPa North 4.7 km/h 6.4 km/h 77% 0.0 mm 14 W/m2
06:19 6.2 °C 2.5 °C 1014.6 hPa NE 3.2 km/h 4.8 km/h 77% 0.0 mm 19 W/m2
06:24 6.1 °C 2.4 °C 1014.6 hPa North 9.7 km/h 14.5 km/h 77% 0.0 mm 28 W/m2
06:29 6.1 °C 2.4 °C 1014.6 hPa NNW 9.7 km/h 9.7 km/h 77% 0.0 mm 33 W/m2
06:34 6.1 °C 2.6 °C 1014.6 hPa NNE 1.4 km/h 14.5 km/h 78% 0.0 mm 37 W/m2
06:39 6.1 °C 2.4 °C 1014.6 hPa ENE 4.7 km/h 16.1 km/h 77% 0.0 mm 40 W/m2
06:44 6.1 °C 2.6 °C 1014.6 hPa NNW 1.4 km/h 11.3 km/h 78% 0.0 mm 44 W/m2
06:49 6.1 °C 2.6 °C 1014.6 hPa NW 7.9 km/h 16.1 km/h 78% 0.0 mm 49 W/m2
06:54 6.1 °C 2.6 °C 1014.9 hPa East 4.7 km/h 6.4 km/h 78% 0.0 mm 51 W/m2
06:59 6.1 °C 2.6 °C 1014.9 hPa NE 3.2 km/h 9.7 km/h 78% 0.0 mm 53 W/m2
07:04 6.1 °C 2.6 °C 1014.9 hPa WNW 4.7 km/h 8 km/h 78% 0.0 mm 60 W/m2
07:09 6.1 °C 2.6 °C 1014.6 hPa NW 3.2 km/h 6.4 km/h 78% 0.0 mm 56 W/m2
07:14 6.1 °C 2.6 °C 1014.6 hPa SW 7.9 km/h 12.9 km/h 78% 0.0 mm 54 W/m2
07:19 6.1 °C 2.6 °C 1014.9 hPa North 6.4 km/h 9.7 km/h 78% 0.0 mm 56 W/m2
07:24 6.1 °C 2.6 °C 1014.9 hPa North 4.7 km/h 9.7 km/h 78% 0.0 mm 60 W/m2
07:29 6.2 °C 2.6 °C 1014.9 hPa NW 11.1 km/h 19.3 km/h 78% 0.0 mm 65 W/m2
07:34 6.3 °C 2.7 °C 1014.9 hPa East 13 km/h 12.9 km/h 78% 0.0 mm 70 W/m2
07:39 6.3 °C 2.7 °C 1014.9 hPa NE 6.4 km/h 19.3 km/h 78% 0.0 mm 67 W/m2
07:44 6.4 °C 2.8 °C 1014.9 hPa East 3.2 km/h 6.4 km/h 78% 0.0 mm 69 W/m2
07:49 6.4 °C 2.8 °C 1015.2 hPa ESE 3.2 km/h 6.4 km/h 78% 0.0 mm 109 W/m2
07:54 6.6 °C 3 °C 1015.2 hPa ESE 4.7 km/h 6.4 km/h 78% 0.0 mm 218 W/m2
07:59 6.8 °C 3.2 °C 1015.2 hPa Calm   11.3 km/h 78% 0.0 mm 253 W/m2
08:04 7 °C 3.1 °C 1015.2 hPa WNW 1.4 km/h 4.8 km/h 76% 0.0 mm 264 W/m2
08:09 7.1 °C 3.2 °C 1015.2 hPa North 3.2 km/h 6.4 km/h 76% 0.0 mm 279 W/m2
08:14 7.3 °C 3.3 °C 1015.2 hPa SE 3.2 km/h 17.7 km/h 76% 0.0 mm 290 W/m2
08:19 7.4 °C 3.3 °C 1015.2 hPa NW 4.7 km/h 11.3 km/h 75% 0.0 mm 302 W/m2
08:24 7.5 °C 3.4 °C 1015.2 hPa NNW 17.7 km/h 17.7 km/h 75% 0.0 mm 315 W/m2
08:29 7.7 °C 3.4 °C 1015.2 hPa NE 6.4 km/h 11.3 km/h 74% 0.0 mm 330 W/m2
08:34 7.9 °C 3.6 °C 1015.2 hPa ESE 1.4 km/h 14.5 km/h 74% 0.0 mm 341 W/m2
08:39 8.1 °C 3.6 °C 1015.6 hPa NW 3.2 km/h 9.7 km/h 73% 0.0 mm 359 W/m2
08:44 8.2 °C 3.6 °C 1015.6 hPa East 4.7 km/h 6.4 km/h 73% 0.0 mm 367 W/m2
08:49 8.3 °C 3.5 °C 1015.6 hPa ENE 3.2 km/h 14.5 km/h 72% 0.0 mm 383 W/m2
08:54 8.3 °C 3.5 °C 1015.6 hPa NNW 3.2 km/h 17.7 km/h 72% 0.0 mm 390 W/m2
08:59 8.4 °C 3.6 °C 1015.6 hPa ENE 1.4 km/h 6.4 km/h 72% 0.0 mm 410 W/m2
09:04 8.7 °C 3.7 °C 1015.6 hPa West 9.7 km/h 11.3 km/h 71% 0.0 mm 422 W/m2
09:09 8.7 °C 3.5 °C 1015.6 hPa NNE 6.4 km/h 8 km/h 70% 0.0 mm 436 W/m2
09:14 8.9 °C 3.7 °C 1015.6 hPa SW 4.7 km/h 12.9 km/h 70% 0.0 mm 452 W/m2
09:19 9 °C 3.6 °C 1015.6 hPa NW 7.9 km/h 14.5 km/h 69% 0.0 mm 462 W/m2
09:24 9.1 °C 3.7 °C 1015.6 hPa SE 3.2 km/h 8 km/h 69% 0.0 mm 478 W/m2
09:29 9.3 °C 3.7 °C 1015.6 hPa North 7.9 km/h 17.7 km/h 68% 0.0 mm 487 W/m2
09:34 9.4 °C 3.8 °C 1015.6 hPa NNW 13 km/h 19.3 km/h 68% 0.0 mm 496 W/m2
09:39 9.6 °C 4 °C 1015.6 hPa SSE 4.7 km/h 12.9 km/h 68% 0.0 mm 513 W/m2
09:44 9.7 °C 4.1 °C 1015.6 hPa NE 4.7 km/h 9.7 km/h 68% 0.0 mm 527 W/m2
09:49 9.9 °C 3.8 °C 1015.6 hPa ENE 1.4 km/h 16.1 km/h 66% 0.0 mm 531 W/m2
09:54 10.1 °C 3.8 °C 1015.6 hPa NE 4.7 km/h 8 km/h 65% 0.0 mm 550 W/m2
09:59 10.2 °C 3.9 °C 1015.6 hPa NNE 7.9 km/h 9.7 km/h 65% 0.0 mm 552 W/m2
10:04 10.2 °C 3.9 °C 1015.6 hPa ENE 1.4 km/h 8 km/h 65% 0.0 mm 575 W/m2
10:09 10.3 °C 4 °C 1015.6 hPa NW 6.4 km/h 11.3 km/h 65% 0.0 mm 517 W/m2
10:14 10.4 °C 3.9 °C 1015.6 hPa NNW 3.2 km/h 16.1 km/h 64% 0.0 mm 102 W/m2
10:19 10.6 °C 3.8 °C 1015.6 hPa ENE 3.2 km/h 16.1 km/h 63% 0.0 mm 165 W/m2
10:24 10.8 °C 3.8 °C 1015.6 hPa NW 7.9 km/h 11.3 km/h 62% 0.0 mm 624 W/m2
10:29 10.9 °C 3.7 °C 1015.6 hPa NE 4.7 km/h 6.4 km/h 61% 0.0 mm 635 W/m2
10:34 11.1 °C 3.6 °C 1015.6 hPa East 6.4 km/h 19.3 km/h 60% 0.0 mm 636 W/m2
10:39 11.2 °C 4 °C 1015.6 hPa East 1.4 km/h 8 km/h 61% 0.0 mm 656 W/m2
10:44 11.4 °C 3.9 °C 1015.6 hPa ENE 6.4 km/h 12.9 km/h 60% 0.0 mm 666 W/m2
10:49 11.4 °C 3.9 °C 1015.6 hPa NNW 4.7 km/h 17.7 km/h 60% 0.0 mm 673 W/m2
10:54 11.4 °C 3.9 °C 1015.6 hPa NE 1.4 km/h 8 km/h 60% 0.0 mm 675 W/m2
10:59 11.5 °C 3.8 °C 1015.6 hPa SE 13 km/h 19.3 km/h 59% 0.0 mm 686 W/m2
11:04 11.6 °C 4.3 °C 1015.6 hPa East 4.7 km/h 9.7 km/h 61% 0.0 mm 698 W/m2
11:09 11.7 °C 4 °C 1015.6 hPa WSW 13 km/h 14.5 km/h 59% 0.0 mm 701 W/m2
11:14 11.8 °C 4.3 °C 1015.6 hPa SW 4.7 km/h 9.7 km/h 60% 0.0 mm 710 W/m2
11:19 11.9 °C 4.1 °C 1015.6 hPa NW 6.4 km/h 8 km/h 59% 0.0 mm 717 W/m2
11:24 12 °C 4 °C 1015.6 hPa NW 4.7 km/h 11.3 km/h 58% 0.0 mm 715 W/m2
11:29 12 °C 4 °C 1015.6 hPa NE 3.2 km/h 12.9 km/h 58% 0.0 mm 763 W/m2
11:35 12.3 °C 4.8 °C 1015.6 hPa SSE 4.7 km/h 12.9 km/h 60% 0.0 mm 816 W/m2
11:40 12.4 °C 4.1 °C 1015.6 hPa SE 3.2 km/h 14.5 km/h 57% 0.0 mm 826 W/m2
11:45 12.5 °C 4.2 °C 1015.6 hPa NW 4.7 km/h 12.9 km/h 57% 0.0 mm 206 W/m2
11:50 12.2 °C 4.2 °C 1015.6 hPa NW 7.9 km/h 11.3 km/h 58% 0.0 mm 487 W/m2
11:55 12.2 °C 4.2 °C 1015.6 hPa West 11.1 km/h 19.3 km/h 58% 0.0 mm 851 W/m2
12:00 12.6 °C 4.6 °C 1015.6 hPa NNE 1.4 km/h 16.1 km/h 58% 0.0 mm 844 W/m2
12:05 12.8 °C 5 °C 1015.6 hPa NW 4.7 km/h 17.7 km/h 59% 0.0 mm 816 W/m2
12:10 13.2 °C 5.1 °C 1015.6 hPa West 3.2 km/h 8 km/h 58% 0.0 mm 828 W/m2
12:15 13.3 °C 5 °C 1015.2 hPa East 6.4 km/h 16.1 km/h 57% 0.0 mm 824 W/m2
12:20 13.4 °C 5.1 °C 1015.2 hPa West 6.4 km/h 12.9 km/h 57% 0.0 mm 886 W/m2
12:25 13.4 °C 4.8 °C 1015.2 hPa NW 6.4 km/h 14.5 km/h 56% 0.0 mm 819 W/m2
12:30 13.3 °C 5 °C 1015.2 hPa ENE 16.3 km/h 16.1 km/h 57% 0.0 mm 861 W/m2
12:35 13.3 °C 5.2 °C 1015.2 hPa NE 1.4 km/h 8 km/h 58% 0.0 mm 821 W/m2
12:40 13.6 °C 5 °C 1015.2 hPa ENE 6.4 km/h 12.9 km/h 56% 0.0 mm 835 W/m2
12:45 13.8 °C 5.2 °C 1015.2 hPa SE 4.7 km/h 17.7 km/h 56% 0.0 mm 823 W/m2
12:50 13.8 °C 4.9 °C 1015.2 hPa East 6.4 km/h 11.3 km/h 55% 0.0 mm 840 W/m2
12:55 13.8 °C 4.7 °C 1015.2 hPa East 6.4 km/h 8 km/h 54% 0.0 mm 817 W/m2
13:00 13.9 °C 5 °C 1015.2 hPa West 1.4 km/h 8 km/h 55% 0.0 mm 851 W/m2
13:05 14.1 °C 5.2 °C 1015.2 hPa WNW 4.7 km/h 17.7 km/h 55% 0.0 mm 926 W/m2
13:10 14.3 °C 5.4 °C 1014.9 hPa NNW 17.7 km/h 17.7 km/h 55% 0.0 mm 963 W/m2
13:15 14.6 °C 5.1 °C 1014.9 hPa East 11.1 km/h 14.5 km/h 53% 0.0 mm 988 W/m2
13:20 14.9 °C 5.1 °C 1014.9 hPa SE 11.1 km/h 16.1 km/h 52% 0.0 mm 817 W/m2
13:25 14.8 °C 5 °C 1014.9 hPa NNW 4.7 km/h 6.4 km/h 52% 0.0 mm 693 W/m2
13:30 14.8 °C 5 °C 1014.9 hPa South 3.2 km/h 9.7 km/h 52% 0.0 mm 496 W/m2
13:35 14.6 °C 4.6 °C 1014.9 hPa NW 4.7 km/h 9.7 km/h 51% 0.0 mm 840 W/m2
13:40 14.3 °C 4.6 °C 1014.9 hPa East 4.7 km/h 14.5 km/h 52% 0.0 mm 415 W/m2
13:45 14.3 °C 4.8 °C 1014.9 hPa NNE 6.4 km/h 6.4 km/h 53% 0.0 mm 415 W/m2
13:50 14.4 °C 4.7 °C 1014.9 hPa ENE 4.7 km/h 16.1 km/h 52% 0.0 mm 510 W/m2
13:55 14.3 °C 4.3 °C 1014.9 hPa East 6.4 km/h 9.7 km/h 51% 0.0 mm 336 W/m2
14:00 14.2 °C 4.5 °C 1014.6 hPa ESE 1.4 km/h 4.8 km/h 52% 0.0 mm 441 W/m2
14:05 14.4 °C 4.4 °C 1014.6 hPa ESE 3.2 km/h 11.3 km/h 51% 0.0 mm 378 W/m2
14:10 14.3 °C 4.3 °C 1014.9 hPa NE 7.9 km/h 12.9 km/h 51% 0.0 mm 450 W/m2
14:15 14.2 °C 4.5 °C 1014.6 hPa SE 6.4 km/h 14.5 km/h 52% 0.0 mm 513 W/m2
14:20 14.3 °C 4.6 °C 1014.6 hPa East 9.7 km/h 11.3 km/h 52% 0.0 mm 1051 W/m2
14:25 14.5 °C 4.5 °C 1014.6 hPa ESE 9.7 km/h 11.3 km/h 51% 0.0 mm 378 W/m2
14:30 14.5 °C 4.2 °C 1014.6 hPa NW 4.7 km/h 11.3 km/h 50% 0.0 mm 388 W/m2
14:35 14.4 °C 3.5 °C 1014.6 hPa ESE 4.7 km/h 6.4 km/h 48% 0.0 mm 392 W/m2
14:40 14.6 °C 4.3 °C 1014.6 hPa East 3.2 km/h 12.9 km/h 50% 0.0 mm 346 W/m2
14:45 14.4 °C 4.1 °C 1014.6 hPa North 3.2 km/h 11.3 km/h 50% 0.0 mm 348 W/m2
14:50 14.4 °C 4.1 °C 1014.6 hPa NE 7.9 km/h 11.3 km/h 50% 0.0 mm 373 W/m2
14:55 14.3 °C 4 °C 1014.6 hPa NE 1.4 km/h 16.1 km/h 50% 0.0 mm 420 W/m2
15:00 14.3 °C 4 °C 1014.6 hPa WSW 4.7 km/h 12.9 km/h 50% 0.0 mm 418 W/m2
15:05 14.6 °C 4 °C 1014.6 hPa NE 9.7 km/h 11.3 km/h 49% 0.0 mm 260 W/m2
15:10 14.5 °C 4.2 °C 1014.6 hPa SE 6.4 km/h 20.9 km/h 50% 0.0 mm 220 W/m2
15:15 14.3 °C 4.3 °C 1014.6 hPa East 11.1 km/h 16.1 km/h 51% 0.0 mm 246 W/m2
15:20 14.1 °C 4.4 °C 1014.6 hPa ENE 6.4 km/h 17.7 km/h 52% 0.0 mm 299 W/m2
15:25 14 °C 4.3 °C 1014.2 hPa North 3.2 km/h 8 km/h 52% 0.0 mm 338 W/m2
15:30 14.2 °C 4.5 °C 1014.2 hPa NW 6.4 km/h 17.7 km/h 52% 0.0 mm 399 W/m2
15:35 14.5 °C 4.8 °C 1014.2 hPa ENE 13 km/h 12.9 km/h 52% 0.0 mm 874 W/m2
15:40 14.8 °C 4.2 °C 1014.2 hPa ENE 17.7 km/h 17.7 km/h 49% 0.0 mm 865 W/m2
15:45 15.2 °C 4.6 °C 1014.2 hPa SSW 3.2 km/h 22.5 km/h 49% 0.0 mm 932 W/m2
15:50 15.3 °C 4.6 °C 1014.2 hPa NNW 4.7 km/h 14.5 km/h 49% 0.0 mm 759 W/m2
15:55 15.4 °C 4.4 °C 1014.2 hPa East 6.4 km/h 22.5 km/h 48% 0.0 mm 438 W/m2
16:00 15.1 °C 4.5 °C 1014.2 hPa East 4.7 km/h 11.3 km/h 49% 0.0 mm 425 W/m2
16:05 15 °C 4.4 °C 1014.2 hPa NE 1.4 km/h 9.7 km/h 49% 0.0 mm 350 W/m2
16:10 14.9 °C 4.3 °C 1014.2 hPa ENE 7.9 km/h 11.3 km/h 49% 0.0 mm 429 W/m2
16:15 15 °C 5.2 °C 1013.9 hPa East 14.3 km/h 19.3 km/h 52% 0.5 mm 322 W/m2
16:20 14.9 °C 4.6 °C 1013.9 hPa ENE 6.4 km/h 8 km/h 50% 0.5 mm 295 W/m2
16:25 14.8 °C 4.8 °C 1013.9 hPa East 4.7 km/h 19.3 km/h 51% 0.5 mm 424 W/m2
16:30 14.8 °C 4.2 °C 1013.9 hPa South 3.2 km/h 16.1 km/h 49% 0.5 mm 359 W/m2
16:35 14.8 °C 4.5 °C 1013.9 hPa South 3.2 km/h 17.7 km/h 50% 0.5 mm 301 W/m2
16:40 14.8 °C 4.2 °C 1013.9 hPa ENE 1.4 km/h 22.5 km/h 49% 0.5 mm 257 W/m2
16:45 14.8 °C 4.5 °C 1013.9 hPa NNE 1.4 km/h 9.7 km/h 50% 0.5 mm 322 W/m2
16:50 15.1 °C 4.2 °C 1013.9 hPa NE 7.9 km/h 24.1 km/h 48% 0.5 mm 329 W/m2
16:55 15.1 °C 4.2 °C 1013.5 hPa ENE 6.4 km/h 17.7 km/h 48% 0.5 mm 267 W/m2
17:00 14.9 °C 4 °C 1013.5 hPa East 9.7 km/h 14.5 km/h 48% 0.5 mm 267 W/m2
17:05 14.8 °C 3.9 °C 1013.5 hPa ENE 1.4 km/h 19.3 km/h 48% 0.5 mm 308 W/m2
17:10 14.8 °C 3.9 °C 1013.5 hPa North 1.4 km/h 6.4 km/h 48% 0.5 mm 617 W/m2
17:15 15.1 °C 3.9 °C 1013.5 hPa NNW 9.7 km/h 19.3 km/h 47% 0.0 mm 693 W/m2
17:20 15.5 °C 3.9 °C 1013.5 hPa SSE 6.4 km/h 20.9 km/h 46% 0.0 mm 668 W/m2
17:25 15.4 °C 3.8 °C 1013.9 hPa ENE 4.7 km/h 19.3 km/h 46% 0.0 mm 206 W/m2
17:30 14.9 °C 3.4 °C 1013.9 hPa NE 3.2 km/h 20.9 km/h 46% 0.0 mm 211 W/m2
17:35 14.7 °C 3.5 °C 1013.9 hPa NE 7.9 km/h 14.5 km/h 47% 0.0 mm 582 W/m2
17:40 14.8 °C 4.2 °C 1013.9 hPa ENE 3.2 km/h 19.3 km/h 49% 0.0 mm 302 W/m2
17:45 14.9 °C 3.7 °C 1013.9 hPa NE 4.7 km/h 11.3 km/h 47% 0.0 mm 258 W/m2
17:50 14.9 °C 3.7 °C 1013.9 hPa East 11.1 km/h 12.9 km/h 47% 0.0 mm 253 W/m2
17:55 14.8 °C 3.6 °C 1013.9 hPa NNE 7.9 km/h 22.5 km/h 47% 0.0 mm 257 W/m2
18:00 14.7 °C 3.5 °C 1013.9 hPa NNE 4.7 km/h 11.3 km/h 47% 0.0 mm 267 W/m2
18:05 14.7 °C 3.8 °C 1013.9 hPa North 4.7 km/h 11.3 km/h 48% 0.0 mm 380 W/m2
18:10 14.9 °C 3.7 °C 1013.9 hPa ESE 4.7 km/h 11.3 km/h 47% 0.0 mm 427 W/m2
18:15 14.8 °C 3.3 °C 1013.9 hPa SSE 3.2 km/h 9.7 km/h 46% 0.0 mm 139 W/m2
18:20 14.7 °C 3.5 °C 1013.9 hPa North 3.2 km/h 19.3 km/h 47% 0.0 mm 123 W/m2
18:25 14.6 °C 3.1 °C 1013.9 hPa ESE 9.7 km/h 14.5 km/h 46% 0.0 mm 128 W/m2
18:30 14.4 °C 3.2 °C 1014.2 hPa NE 4.7 km/h 9.7 km/h 47% 0.0 mm 132 W/m2
18:35 14.3 °C 3.1 °C 1013.9 hPa ENE 11.1 km/h 20.9 km/h 47% 0.0 mm 141 W/m2
18:40 14.3 °C 3.4 °C 1013.9 hPa East 1.4 km/h 6.4 km/h 48% 0.0 mm 137 W/m2
18:45 14.3 °C 3.1 °C 1013.9 hPa ESE 6.4 km/h 20.9 km/h 47% 0.0 mm 135 W/m2
18:50 14.2 °C 2.7 °C 1014.2 hPa SE 4.7 km/h 25.7 km/h 46% 0.0 mm 111 W/m2
18:55 14.1 °C 3 °C 1013.9 hPa East 11.1 km/h 12.9 km/h 47% 0.0 mm 97 W/m2
19:00 14.1 °C 3 °C 1013.9 hPa ESE 9.7 km/h 25.7 km/h 47% 0.0 mm 91 W/m2
19:05 14.1 °C 3 °C 1013.9 hPa ESE 3.2 km/h 9.7 km/h 47% 0.0 mm 97 W/m2
19:10 13.9 °C 2.8 °C 1013.9 hPa East 9.7 km/h 17.7 km/h 47% 0.0 mm 100 W/m2
19:15 13.8 °C 3 °C 1014.2 hPa ENE 3.2 km/h 12.9 km/h 48% 0.0 mm 116 W/m2
19:20 13.8 °C 3 °C 1013.9 hPa East 4.7 km/h 14.5 km/h 48% 0.0 mm 121 W/m2
19:25 13.8 °C 3 °C 1014.2 hPa East 7.9 km/h 9.7 km/h 48% 0.0 mm 107 W/m2
19:30 13.8 °C 2.7 °C 1013.9 hPa West 11.1 km/h 12.9 km/h 47% 0.0 mm 79 W/m2
19:35 13.8 °C 3 °C 1014.2 hPa ESE 6.4 km/h 22.5 km/h 48% 0.0 mm 46 W/m2
19:40 13.7 °C 2.9 °C 1013.9 hPa NE 17.7 km/h 17.7 km/h 48% 0.0 mm 35 W/m2
19:45 13.7 °C 2.9 °C 1013.9 hPa East 11.1 km/h 22.5 km/h 48% 0.0 mm 35 W/m2
19:50 13.6 °C 2.8 °C 1013.9 hPa ENE 7.9 km/h 8 km/h 48% 0.0 mm 33 W/m2
19:55 13.4 °C 2.9 °C 1013.9 hPa NE 7.9 km/h 9.7 km/h 49% 0.0 mm 33 W/m2
20:00 13.3 °C 2.8 °C 1014.2 hPa ENE 3.2 km/h 3.2 km/h 49% 0.0 mm 35 W/m2
20:05 13.3 °C 2.8 °C 1013.9 hPa NNW 6.4 km/h 8 km/h 49% 0.0 mm 40 W/m2
20:10 13.2 °C 2.7 °C 1013.9 hPa NE 3.2 km/h 9.7 km/h 49% 0.0 mm 46 W/m2
20:15 13.2 °C 3 °C 1013.9 hPa East 7.9 km/h 9.7 km/h 50% 0.0 mm 70 W/m2
20:20 13.2 °C 3.3 °C 1013.9 hPa Calm   1.6 km/h 51% 0.0 mm 44 W/m2
20:25 13.1 °C 2.9 °C 1013.9 hPa Calm   8 km/h 50% 0.0 mm 33 W/m2
20:30 13.1 °C 3.2 °C 1013.9 hPa Calm   3.2 km/h 51% 0.0 mm 33 W/m2
20:35 12.9 °C 3 °C 1014.2 hPa North 4.7 km/h 11.3 km/h 51% 0.0 mm 32 W/m2
20:40 12.8 °C 3.2 °C 1014.2 hPa NW 3.2 km/h 4.8 km/h 52% 0.0 mm 25 W/m2
20:45 12.7 °C 3.1 °C 1014.2 hPa NW 1.4 km/h 11.3 km/h 52% 0.0 mm 21 W/m2
20:50 12.7 °C 3.1 °C 1014.2 hPa Calm   1.6 km/h 52% 0.0 mm 16 W/m2
20:55 12.6 °C 3 °C 1013.9 hPa Calm   3.2 km/h 52% 0.0 mm 12 W/m2
21:00 12.4 °C 2.8 °C 1014.2 hPa NNW 1.4 km/h 3.2 km/h 52% 0.0 mm 11 W/m2
21:05 12.3 °C 3 °C 1013.9 hPa Calm   9.7 km/h 53% 0.0 mm 7 W/m2
21:10 12.2 °C 2.9 °C 1014.2 hPa WSW 1.4 km/h 3.2 km/h 53% 0.0 mm 5 W/m2
21:15 12.1 °C 2.8 °C 1014.2 hPa NNW 3.2 km/h 3.2 km/h 53% 0.0 mm 0 W/m2
21:20 11.9 °C 2.9 °C 1014.2 hPa NNW 3.2 km/h 6.4 km/h 54% 0.0 mm 0 W/m2
21:26 11.9 °C 2.9 °C 1014.2 hPa ENE 6.4 km/h 6.4 km/h 54% 0.0 mm 0 W/m2
21:31 11.8 °C 2.8 °C 1014.2 hPa Calm   3.2 km/h 54% 0.0 mm 0 W/m2
21:36 11.7 °C 3 °C 1014.2 hPa Calm   1.6 km/h 55% 0.0 mm 0 W/m2
21:41 11.6 °C 3.1 °C 1014.6 hPa Calm   1.6 km/h 56% 0.0 mm 0 W/m2
21:46 11.4 °C 2.9 °C 1014.6 hPa WNW 1.4 km/h 6.4 km/h 56% 0.0 mm 0 W/m2
21:51 11.3 °C 2.8 °C 1014.6 hPa NNE 1.4 km/h 1.6 km/h 56% 0.0 mm 0 W/m2
21:56 11.3 °C 2.8 °C 1014.6 hPa NW 1.4 km/h 6.4 km/h 56% 0.0 mm 0 W/m2
22:01 11.3 °C 2.8 °C 1014.6 hPa NE 1.4 km/h 4.8 km/h 56% 0.0 mm 0 W/m2
22:06 11.3 °C 2.8 °C 1014.6 hPa East 6.4 km/h 12.9 km/h 56% 0.0 mm 0 W/m2
22:11 11.3 °C 2.8 °C 1014.6 hPa NNW 3.2 km/h 6.4 km/h 56% 0.0 mm 0 W/m2
22:16 11.2 °C 2.7 °C 1014.6 hPa North 1.4 km/h 8 km/h 56% 0.0 mm 0 W/m2
22:21 11.2 °C 2.7 °C 1014.6 hPa NW 4.7 km/h 4.8 km/h 56% 0.0 mm 0 W/m2
22:26 11.2 °C 3 °C 1014.6 hPa ENE 1.4 km/h 6.4 km/h 57% 0.0 mm 0 W/m2
22:31 11.2 °C 3 °C 1014.9 hPa NE 1.4 km/h 6.4 km/h 57% 0.0 mm 0 W/m2
22:36 11.1 °C 2.9 °C 1014.9 hPa NE 1.4 km/h 1.6 km/h 57% 0.0 mm 0 W/m2
22:41 11.1 °C 2.9 °C 1014.9 hPa ENE 1.4 km/h 6.4 km/h 57% 0.0 mm 0 W/m2
22:46 11.1 °C 2.9 °C 1014.9 hPa Calm   3.2 km/h 57% 0.0 mm 0 W/m2
22:52 11.1 °C 2.9 °C 1014.9 hPa NNW 3.2 km/h 4.8 km/h 57% 0.0 mm 0 W/m2
22:57 11 °C 3.1 °C 1014.9 hPa Calm   3.2 km/h 58% 0.0 mm 0 W/m2
23:02 11 °C 3.1 °C 1014.9 hPa WNW 1.4 km/h 3.2 km/h 58% 0.0 mm 0 W/m2
23:07 10.9 °C 3 °C 1014.9 hPa Calm   3.2 km/h 58% 0.0 mm 0 W/m2
23:12 10.8 °C 2.9 °C 1014.9 hPa NNE 1.4 km/h 3.2 km/h 58% 0.0 mm 0 W/m2
23:17 10.8 °C 3.1 °C 1014.9 hPa WNW 3.2 km/h 4.8 km/h 59% 0.0 mm 0 W/m2
23:22 10.8 °C 3.1 °C 1014.9 hPa Calm   3.2 km/h 59% 0.0 mm 0 W/m2
23:27 10.7 °C 3.2 °C 1014.9 hPa Calm   4.8 km/h 60% 0.0 mm 0 W/m2
23:32 10.7 °C 3.2 °C 1014.9 hPa WNW 1.4 km/h 3.2 km/h 60% 0.0 mm 0 W/m2
23:37 10.6 °C 3.4 °C 1014.9 hPa Calm   4.8 km/h 61% 0.0 mm 0 W/m2
23:42 10.5 °C 3.1 °C 1014.9 hPa West 1.4 km/h 3.2 km/h 60% 0.0 mm 0 W/m2
23:47 10.4 °C 3.2 °C 1014.9 hPa Calm   4.8 km/h 61% 0.0 mm 0 W/m2
23:52 10.3 °C 3.3 °C 1014.9 hPa West 3.2 km/h 3.2 km/h 62% 0.0 mm 0 W/m2
23:58 10.1 °C 2.9 °C 1014.9 hPa West 1.4 km/h 4.8 km/h 61% 0.0 mm 0 W/m2
Juneau County Weather
Compliments of Weather Underground - 4 mb